DECAYED

STARLINK-2181, 47763 (Decayed)

Orbit data source: Space-Track

STARLINK-2181, 47763 was a payload satellite owned by SpaceX/Seattle (US) in LEO that was launched on Thu, 04 Mar 2021 UTC via an FALCON 9 launch vehicle from the Air Force Eastern Test Range (AFETR). Payload-class satellites include a variety of spacecraft equipped with specific instruments for various scientific and technological missions. These include communications satellites like Starlink; space stations such as the ISS; scientific satellites like the Hubble; Earth observation satellites from companies like Planet Labs, Umbra, and HawkEye 360; GPS; miniature CubeSats for education and research; and military/defense satellites.

Not visible in the next 10 days
Identifier
47763, 2021-017AT
Orbit
Decayed
Country
Flag of USUS
Related business
Manufacturer
SpaceX/Seattle
Mission
Decayed Commercial Communications
Bus & Motor
STARLINK, Unknown motor
Mass
260 kg wet, ~248 kg dry
Launch date (UTC)
2021-03-04 (5 years ago)
Launch vehicle
FALCON 9
Launch site
Air Force Eastern Test Range (AFETR)
Object type
Payload
Rocket body
Debris
Shape & HBR
Box + 1 Pan, 10.1 m
Radar Cross Section
13.562 m², Large (>1 m²)

Expand to show TLE details & history
Last TLE update: 11 months ago

TLE from 11 months ago
0 STARLINK-2181
1 47763U 21017AT  25007.30130765  .11119634  12400-4  58575-3 0  9997
2 47763  53.0320 303.5221 0002057 196.5816 304.8102 16.42577524213139
Epoch: 2025-01-07T07:13Z
TLE epoch observation values (Epoch: 2025-01-07T07:13:52.980Z)
Latitude
30.01567°
Longitude
-117.67447°
Altitude
159.878 km
Speed
7.815 km/s
True Right ascension
06h 31m 37s
True Declination
29° 51' 12"
Sunlit
Object was in full shadow at epoch
Visualization orbit readout
Latitude
Unknown
Longitude
Unknown
Altitude
Unknown
Speed
Unknown
Apparent Right ascension
Unknown
Apparent Declination
Unknown
Sunlit
N/A
Visualization observer readout
Local Sidereal Time
07:28:05
Azimuth
Unknown
Elevation
Unknown
Doppler factor
Unknown
Orbital elements
Apogee altitude
160.59 km
Perigee altitude
157.9 km
Semi-major axis
6,537.382 km
Eccentricity
0.00021
Inclination
53.032°
RAAN
303.5221°
Arg. of periapsis
196.5816°
True anomaly
304.79084°
Mean anomaly
304.8102°
Eccentric anomaly
304.80052°
Mean motion
4.10617 °/min
Orbital period
87.67 mins
BSTAR
0.00058575
Loading maneuver chart data...
Computing Atmospheric mass density...
Loading historical data...
Loading historical data...
Loading historical data...
Loading historical data...
Loading historical data...
Loading historical data...
Loading historical data...

Documentation

Showing up to 5 results
|